Location: Castiglione Fibocchi
(43.5333°N, 11.7667°E)
Time: 10:20:46
(UTC+00:00)

SL-08 ROCKET BODY - Pass Details

Date: 15 August 2020
Orbit: 896 x 964 km, 82.9° (Epoch: 18 September)

Event Time Altitude Azimuth Distance (km) Brightness Sun altitude
Rises 02:21:26 0° 352° (N) 3,608 8.0 -18.8°
Reaches altitude 10° 02:23:56 10° 352° (N) 2,649 7.2 -18.5°
Maximum altitude 02:29:59 88° 79° (E) 927 4.4 -17.7°
Drops below altitude 10° 02:35:54 10° 173° (S) 2,586 6.4 -16.9°
Enters shadow 02:37:22 - 174° (S) 3,145 6.9 -16.7°
